"Sample Date","Sample Time","Sample Value","Units","Flow Rate","Sample Interval","Number Channels","Micron Size 0","Counts/Channel 0","Micron Size 1","Counts/Channel 1","Micron Size 2","Counts/Channel 2","Micron Size 3","Counts/Channel 3","Micron Size 4","Counts/Channel 4","Micron Size 5","Counts/Channel 5","Micron Size 6","Counts/Channel 6","Micron Size 7","Counts/Channel 7","Micron Size 8","Counts/Channel 8","Micron Size 9","Counts/Channel 9","Micron Size 10","Counts/Channel 10","Micron Size 11","Counts/Channel 11","Micron Size 12","Counts/Channel 12","Micron Size 13","Counts/Channel 13","Micron Size 14","Counts/Channel 14","Micron Size 15","Counts/Channel 15","Micron Size 16","Counts/Channel 16","Micron Size 17","Counts/Channel 17","Micron Size 18","Counts/Channel 18","Micron Size 19","Counts/Channel 19","Micron Size 20","Counts/Channel 20","Micron Size 21","Counts/Channel 21","Micron Size 22","Counts/Channel 22","Micron Size 23","Counts/Channel 23","Micron Size 24","Counts/Channel 24","Micron Size 25","Counts/Channel 25","Micron Size 26","Counts/Channel 26","Micron Size 27","Counts/Channel 27","Micron Size 28","Counts/Channel 28","Micron Size 29","Counts/Channel 29","Micron Size 30","Counts/Channel 30","Micron Size 31","Counts/Channel 31"
"03/09/08","14:00:03",8859.000,"cc",28367.969,6.00,6,0.100,8135.000,0.200,652.000,0.300,67.000,0.500,5.000,1.000,0,5.000,0
"03/09/08","14:00:09",8960.000,"cc",28305.221,6.00,6,0.100,8182.000,0.200,707.000,0.300,63.000,0.500,8.000,1.000,0,5.000,0
"03/09/08","14:00:15",8836.000,"cc",28126.807,6.00,6,0.100,8106.000,0.200,643.000,0.300,73.000,0.500,14.000,1.000,0,5.000,0
"03/09/08","14:00:21",8807.000,"cc",28334.969,6.00,6,0.100,8025.000,0.200,706.000,0.300,71.000,0.500,5.000,1.000,0,5.000,0
"03/09/08","14:00:27",8573.000,"cc",28380.805,6.00,6,0.100,7851.000,0.200,644.000,0.300,74.000,0.500,4.000,1.000,0,5.000,0
"03/09/08","14:00:33",8679.000,"cc",28433.309,6.00,6,0.100,7959.000,0.200,643.000,0.300,74.000,0.500,3.000,1.000,0,5.000,0
"03/09/08","14:00:39",9001.000,"cc",28261.607,6.00,6,0.100,8179.000,0.200,716.000,0.300,96.000,0.500,10.000,1.000,0,5.000,0
"03/09/08","14:00:45",8419.000,"cc",28355.496,6.00,6,0.100,7737.000,0.200,626.000,0.300,54.000,0.500,2.000,1.000,0,5.000,0
"03/09/08","14:00:51",9028.000,"cc",28369.256,6.00,6,0.100,8217.000,0.200,711.000,0.300,87.000,0.500,12.000,1.000,1.000,5.000,0
"03/09/08","14:00:57",8638.000,"cc",28274.385,6.00,6,0.100,7959.000,0.200,604.000,0.300,70.000,0.500,5.000,1.000,0,5.000,0
"03/09/08","14:01:03",8825.000,"cc",28218.057,6.00,6,0.100,8050.000,0.200,708.000,0.300,63.000,0.500,4.000,1.000,0,5.000,0
"03/09/08","14:01:09",8764.000,"cc",28336.834,6.00,6,0.100,8000.000,0.200,682.000,0.300,74.000,0.500,8.000,1.000,0,5.000,0
"03/09/08","14:01:15",8834.000,"cc",28456.609,6.00,6,0.100,8021.000,0.200,727.000,0.300,83.000,0.500,3.000,1.000,0,5.000,0
"03/09/08","14:01:21",8300.000,"cc",28322.797,6.00,6,0.100,7606.000,0.200,619.000,0.300,69.000,0.500,6.000,1.000,0,5.000,0
"03/09/08","14:01:27",8674.000,"cc",28224.414,6.00,6,0.100,7908.000,0.200,679.000,0.300,80.000,0.500,6.000,1.000,1.000,5.000,0
"03/09/08","14:01:33",8906.000,"cc",28250.170,6.00,6,0.100,8169.000,0.200,666.000,0.300,63.000,0.500,8.000,1.000,0,5.000,0
"03/09/08","14:01:39",8665.000,"cc",28345.410,6.00,6,0.100,7934.000,0.200,670.000,0.300,59.000,0.500,2.000,1.000,0,5.000,0
"03/09/08","14:01:45",8729.000,"cc",28281.035,6.00,6,0.100,8016.000,0.200,640.000,0.300,71.000,0.500,2.000,1.000,0,5.000,0
"03/09/08","14:01:51",8867.000,"cc",28264.766,6.00,6,0.100,8138.000,0.200,660.000,0.300,62.000,0.500,7.000,1.000,0,5.000,0
"03/09/08","14:01:57",8607.000,"cc",28340.262,6.00,6,0.100,7895.000,0.200,642.000,0.300,65.000,0.500,5.000,1.000,0,5.000,0
"03/09/08","14:02:03",8781.000,"cc",28383.891,6.00,6,0.100,8063.000,0.200,649.000,0.300,64.000,0.500,5.000,1.000,0,5.000,0
"03/09/08","14:02:09",8914.000,"cc",28318.650,6.00,6,0.100,8188.000,0.200,644.000,0.300,73.000,0.500,8.000,1.000,1.000,5.000,0
"03/09/08","14:02:15",8471.000,"cc",28414.813,6.00,6,0.100,7771.000,0.200,638.000,0.300,60.000,0.500,1.000,1.000,1.000,5.000,0
"03/09/08","14:02:21",8771.000,"cc",28331.020,6.00,6,0.100,8015.000,0.200,670.000,0.300,81.000,0.500,5.000,1.000,0,5.000,0
"03/09/08","14:02:27",8560.000,"cc",28296.998,6.00,6,0.100,7887.000,0.200,618.000,0.300,52.000,0.500,3.000,1.000,0,5.000,0
"03/09/08","14:02:33",8705.000,"cc",28388.338,6.00,6,0.100,7874.000,0.200,737.000,0.300,80.000,0.500,14.000,1.000,0,5.000,0
"03/09/08","14:02:39",8673.000,"cc",28215.857,6.00,6,0.100,7921.000,0.200,678.000,0.300,67.000,0.500,7.000,1.000,0,5.000,0
"03/09/08","14:02:45",8927.000,"cc",28225.869,6.00,6,0.100,8080.000,0.200,759.000,0.300,84.000,0.500,4.000,1.000,0,5.000,0
"03/09/08","14:02:51",8820.000,"cc",28339.420,6.00,6,0.100,8036.000,0.200,711.000,0.300,70.000,0.500,3.000,1.000,0,5.000,0
"03/09/08","14:02:57",8640.000,"cc",28331.391,6.00,6,0.100,7869.000,0.200,682.000,0.300,80.000,0.500,9.000,1.000,0,5.000,0
"03/09/08","14:03:03",8812.000,"cc",28291.049,6.00,6,0.100,8041.000,0.200,676.000,0.300,89.000,0.500,6.000,1.000,0,5.000,0
"03/09/08","14:03:09",8645.000,"cc",28334.838,6.00,6,0.100,7958.000,0.200,623.000,0.300,55.000,0.500,9.000,1.000,0,5.000,0
"03/09/08","14:03:15",8584.000,"cc",28300.004,6.00,6,0.100,7869.000,0.200,660.000,0.300,51.000,0.500,4.000,1.000,0,5.000,0
"03/09/08","14:03:21",8860.000,"cc",28408.539,6.00,6,0.100,8104.000,0.200,664.000,0.300,86.000,0.500,6.000,1.000,0,5.000,0
"03/09/08","14:03:27",8692.000,"cc",28355.152,6.00,6,0.100,7929.000,0.200,695.000,0.300,63.000,0.500,5.000,1.000,0,5.000,0
"03/09/08","14:03:33",8988.000,"cc",28275.945,6.00,6,0.100,8241.000,0.200,668.000,0.300,67.000,0.500,12.000,1.000,0,5.000,0
"03/09/08","14:03:39",8905.000,"cc",28233.451,6.00,6,0.100,8171.000,0.200,647.000,0.300,82.000,0.500,5.000,1.000,0,5.000,0
"03/09/08","14:03:45",8770.000,"cc",28382.734,6.00,6,0.100,8079.000,0.200,637.000,0.300,51.000,0.500,3.000,1.000,0,5.000,0
"03/09/08","14:03:51",8587.000,"cc",28434.393,6.00,6,0.100,7875.000,0.200,645.000,0.300,58.000,0.500,9.000,1.000,0,5.000,0
"03/09/08","14:03:57",8771.000,"cc",28271.553,6.00,6,0.100,8027.000,0.200,681.000,0.300,57.000,0.500,6.000,1.000,0,5.000,0
"03/09/08","14:04:03",9172.000,"cc",28284.979,6.00,6,0.100,8337.000,0.200,746.000,0.300,83.000,0.500,5.000,1.000,1.000,5.000,0
"03/09/08","14:04:09",8445.000,"cc",28262.908,6.00,6,0.100,7798.000,0.200,588.000,0.300,55.000,0.500,4.000,1.000,0,5.000,0
"03/09/08","14:04:15",8881.000,"cc",28390.164,6.00,6,0.100,8040.000,0.200,746.000,0.300,91.000,0.500,4.000,1.000,0,5.000,0
"03/09/08","14:04:21",9182.000,"cc",28283.502,6.00,6,0.100,8384.000,0.200,726.000,0.300,69.000,0.500,3.000,1.000,0,5.000,0
"03/09/08","14:04:27",8978.000,"cc",28369.492,6.00,6,0.100,8171.000,0.200,720.000,0.300,82.000,0.500,5.000,1.000,0,5.000,0
"03/09/08","14:04:33",9104.000,"cc",28338.377,6.00,6,0.100,8293.000,0.200,731.000,0.300,71.000,0.500,9.000,1.000,0,5.000,0
"03/09/08","14:04:39",9011.000,"cc",28297.236,6.00,6,0.100,8204.000,0.200,729.000,0.300,72.000,0.500,6.000,1.000,0,5.000,0
"03/09/08","14:04:45",9119.000,"cc",28255.059,6.00,6,0.100,8345.000,0.200,709.000,0.300,61.000,0.500,4.000,1.000,0,5.000,0
"03/09/08","14:04:51",8991.000,"cc",28330.926,6.00,6,0.100,8244.000,0.200,687.000,0.300,55.000,0.500,5.000,1.000,0,5.000,0
"03/09/08","14:04:57",8757.000,"cc",28393.754,6.00,6,0.100,7996.000,0.200,690.000,0.300,61.000,0.500,10.000,1.000,0,5.000,0
"03/09/08","14:05:03",8870.000,"cc",28323.115,6.00,6,0.100,8106.000,0.200,678.000,0.300,79.000,0.500,7.000,1.000,0,5.000,0
"03/09/08","14:05:09",8787.000,"cc",28191.475,6.00,6,0.100,8063.000,0.200,658.000,0.300,65.000,0.500,1.000,1.000,0,5.000,0
"03/09/08","14:05:15",9047.000,"cc",28260.770,6.00,6,0.100,8237.000,0.200,744.000,0.300,61.000,0.500,5.000,1.000,0,5.000,0
"03/09/08","14:05:21",8889.000,"cc",28387.225,6.00,6,0.100,8183.000,0.200,630.000,0.300,72.000,0.500,4.000,1.000,0,5.000,0
"03/09/08","14:05:27",9049.000,"cc",28268.930,6.00,6,0.100,8257.000,0.200,690.000,0.300,90.000,0.500,12.000,1.000,0,5.000,0
"03/09/08","14:05:33",9146.000,"cc",28364.227,6.00,6,0.100,8354.000,0.200,713.000,0.300,76.000,0.500,3.000,1.000,0,5.000,0
"03/09/08","14:05:39",8946.000,"cc",28254.668,6.00,6,0.100,8203.000,0.200,682.000,0.300,58.000,0.500,3.000,1.000,0,5.000,0
"03/09/08","14:05:45",9208.000,"cc",28356.836,6.00,6,0.100,8441.000,0.200,685.000,0.300,77.000,0.500,5.000,1.000,0,5.000,0
"03/09/08","14:05:51",8700.000,"cc",28361.680,6.00,6,0.100,7985.000,0.200,652.000,0.300,59.000,0.500,4.000,1.000,0,5.000,0
"03/09/08","14:05:57",9236.000,"cc",28209.215,6.00,6,0.100,8432.000,0.200,689.000,0.300,109.000,0.500,6.000,1.000,0,5.000,0
"03/09/08","14:06:03",9457.000,"cc",28265.057,6.00,6,0.100,8631.000,0.200,730.000,0.300,90.000,0.500,6.000,1.000,0,5.000,0
"03/09/08","14:06:09",9530.000,"cc",28419.811,6.00,6,0.100,8640.000,0.200,786.000,0.300,93.000,0.500,11.000,1.000,0,5.000,0
"03/09/08","14:06:15",9249.000,"cc",28301.326,6.00,6,0.100,8353.000,0.200,791.000,0.300,98.000,0.500,7.000,1.000,0,5.000,0
"03/09/08","14:06:21",9188.000,"cc",28359.981,6.00,6,0.100,8423.000,0.200,687.000,0.300,73.000,0.500,5.000,1.000,0,5.000,0
"03/09/08","14:06:27",9122.000,"cc",28189.303,6.00,6,0.100,8374.000,0.200,679.000,0.300,66.000,0.500,3.000,1.000,0,5.000,0
"03/09/08","14:06:33",9244.000,"cc",28332.494,6.00,6,0.100,8458.000,0.200,722.000,0.300,62.000,0.500,2.000,1.000,0,5.000,0
"03/09/08","14:06:39",9160.000,"cc",28330.514,6.00,6,0.100,8374.000,0.200,711.000,0.300,67.000,0.500,8.000,1.000,0,5.000,0
"03/09/08","14:06:45",9634.000,"cc",28285.039,6.00,6,0.100,8765.000,0.200,767.000,0.300,90.000,0.500,11.000,1.000,1.000,5.000,0
"03/09/08","14:06:51",9304.000,"cc",28305.330,6.00,6,0.100,8491.000,0.200,726.000,0.300,78.000,0.500,9.000,1.000,0,5.000,0
"03/09/08","14:06:57",9874.000,"cc",28318.086,6.00,6,0.100,8909.000,0.200,852.000,0.300,102.000,0.500,11.000,1.000,0,5.000,0
"03/09/08","14:07:03",9822.000,"cc",28329.887,6.00,6,0.100,8808.000,0.200,870.000,0.300,135.000,0.500,9.000,1.000,0,5.000,0
"03/09/08","14:07:09",10438.000,"cc",28392.272,6.00,6,0.100,9321.000,0.200,953.000,0.300,145.000,0.500,16.000,1.000,3.000,5.000,0
"03/09/08","14:07:15",9439.000,"cc",28312.523,6.00,6,0.100,8629.000,0.200,723.000,0.300,79.000,0.500,8.000,1.000,0,5.000,0
"03/09/08","14:07:21",9798.000,"cc",28334.150,6.00,6,0.100,8807.000,0.200,867.000,0.300,110.000,0.500,13.000,1.000,1.000,5.000,0
"03/09/08","14:07:27",9395.000,"cc",28285.063,6.00,6,0.100,8606.000,0.200,713.000,0.300,71.000,0.500,3.000,1.000,2.000,5.000,0
"03/09/08","14:07:33",9483.000,"cc",28318.877,6.00,6,0.100,8670.000,0.200,733.000,0.300,75.000,0.500,5.000,1.000,0,5.000,0
"03/09/08","14:07:39",9385.000,"cc",28212.123,6.00,6,0.100,8621.000,0.200,697.000,0.300,63.000,0.500,4.000,1.000,0,5.000,0
"03/09/08","14:07:45",9492.000,"cc",28378.227,6.00,6,0.100,8713.000,0.200,708.000,0.300,67.000,0.500,4.000,1.000,0,5.000,0
"03/09/08","14:07:51",9482.000,"cc",28380.486,6.00,6,0.100,8709.000,0.200,708.000,0.300,61.000,0.500,4.000,1.000,0,5.000,0
"03/09/08","14:07:57",9343.000,"cc",28318.022,6.00,6,0.100,8481.000,0.200,777.000,0.300,75.000,0.500,10.000,1.000,0,5.000,0
"03/09/08","14:08:03",9667.000,"cc",28346.084,6.00,6,0.100,8836.000,0.200,762.000,0.300,62.000,0.500,7.000,1.000,0,5.000,0
"03/09/08","14:08:09",9512.000,"cc",28241.043,6.00,6,0.100,8692.000,0.200,738.000,0.300,80.000,0.500,2.000,1.000,0,5.000,0
"03/09/08","14:08:15",9666.000,"cc",28400.844,6.00,6,0.100,8815.000,0.200,763.000,0.300,77.000,0.500,11.000,1.000,0,5.000,0
"03/09/08","14:08:21",9667.000,"cc",28300.609,6.00,6,0.100,8815.000,0.200,756.000,0.300,90.000,0.500,6.000,1.000,0,5.000,0
"03/09/08","14:08:27",9491.000,"cc",28251.197,6.00,6,0.100,8702.000,0.200,706.000,0.300,74.000,0.500,9.000,1.000,0,5.000,0
"03/09/08","14:08:33",9738.000,"cc",28250.238,6.00,6,0.100,8980.000,0.200,704.000,0.300,50.000,0.500,4.000,1.000,0,5.000,0
"03/09/08","14:08:39",9511.000,"cc",28281.498,6.00,6,0.100,8737.000,0.200,712.000,0.300,56.000,0.500,6.000,1.000,0,5.000,0
"03/09/08","14:08:45",9706.000,"cc",28426.133,6.00,6,0.100,8867.000,0.200,754.000,0.300,79.000,0.500,6.000,1.000,0,5.000,0
"03/09/08","14:08:51",9353.000,"cc",28372.430,6.00,6,0.100,8559.000,0.200,709.000,0.300,78.000,0.500,7.000,1.000,0,5.000,0
"03/09/08","14:08:57",9238.000,"cc",28341.748,6.00,6,0.100,8450.000,0.200,719.000,0.300,67.000,0.500,2.000,1.000,0,5.000,0
"03/09/08","14:09:03",9983.000,"cc",28224.908,6.00,6,0.100,9141.000,0.200,744.000,0.300,90.000,0.500,8.000,1.000,0,5.000,0
"03/09/08","14:09:09",9956.000,"cc",28308.514,6.00,6,0.100,9025.000,0.200,805.000,0.300,117.000,0.500,9.000,1.000,0,5.000,0
"03/09/08","14:09:15",9904.000,"cc",28337.254,6.00,6,0.100,8937.000,0.200,875.000,0.300,86.000,0.500,6.000,1.000,0,5.000,0
"03/09/08","14:09:21",9925.000,"cc",28315.375,6.00,6,0.100,9033.000,0.200,806.000,0.300,81.000,0.500,5.000,1.000,0,5.000,0
"03/09/08","14:09:27",9546.000,"cc",28382.615,6.00,6,0.100,8746.000,0.200,724.000,0.300,73.000,0.500,3.000,1.000,0,5.000,0
"03/09/08","14:09:33",9891.000,"cc",28246.100,6.00,6,0.100,9038.000,0.200,775.000,0.300,72.000,0.500,6.000,1.000,0,5.000,0
"03/09/08","14:09:39",9917.000,"cc",28271.873,6.00,6,0.100,9062.000,0.200,769.000,0.300,83.000,0.500,3.000,1.000,0,5.000,0
"03/09/08","14:09:45",9767.000,"cc",28372.938,6.00,6,0.100,8969.000,0.200,704.000,0.300,85.000,0.500,9.000,1.000,0,5.000,0
"03/09/08","14:09:51",9788.000,"cc",28321.068,6.00,6,0.100,8947.000,0.200,737.000,0.300,98.000,0.500,6.000,1.000,0,5.000,0
"03/09/08","14:09:57",10021.000,"cc",28251.621,6.00,6,0.100,9008.000,0.200,897.000,0.300,111.000,0.500,5.000,1.000,0,5.000,0
"03/09/08","14:10:03",9738.000,"cc",28404.225,6.00,6,0.100,8882.000,0.200,763.000,0.300,86.000,0.500,7.000,1.000,0,5.000,0
"03/09/08","14:10:09",9924.000,"cc",28347.152,6.00,6,0.100,9072.000,0.200,767.000,0.300,75.000,0.500,10.000,1.000,0,5.000,0
"03/09/08","14:10:15",10283.000,"cc",28282.322,6.00,6,0.100,9353.000,0.200,842.000,0.300,85.000,0.500,3.000,1.000,0,5.000,0
"03/09/08","14:10:21",9797.000,"cc",28364.066,6.00,6,0.100,8950.000,0.200,756.000,0.300,86.000,0.500,4.000,1.000,1.000,5.000,0
"03/09/08","14:10:27",9841.000,"cc",28265.953,6.00,6,0.100,8984.000,0.200,769.000,0.300,80.000,0.500,8.000,1.000,0,5.000,0
"03/09/08","14:10:33",10295.000,"cc",28305.828,6.00,6,0.100,9373.000,0.200,818.000,0.300,94.000,0.500,10.000,1.000,0,5.000,0
"03/09/08","14:10:39",10000.000,"cc",28371.316,6.00,6,0.100,9072.000,0.200,829.000,0.300,87.000,0.500,12.000,1.000,0,5.000,0
"03/09/08","14:10:45",9923.000,"cc",28243.502,6.00,6,0.100,9016.000,0.200,814.000,0.300,86.000,0.500,7.000,1.000,0,5.000,0
"03/09/08","14:10:51",10168.000,"cc",28241.842,6.00,6,0.100,9180.000,0.200,875.000,0.300,105.000,0.500,7.000,1.000,1.000,5.000,0
"03/09/08","14:10:57",10219.000,"cc",28363.670,6.00,6,0.100,9335.000,0.200,801.000,0.300,81.000,0.500,2.000,1.000,0,5.000,0
"03/09/08","14:11:03",10112.000,"cc",28298.191,6.00,6,0.100,9209.000,0.200,830.000,0.300,65.000,0.500,8.000,1.000,0,5.000,0
"03/09/08","14:11:09",10121.000,"cc",28346.305,6.00,6,0.100,9200.000,0.200,805.000,0.300,104.000,0.500,12.000,1.000,0,5.000,0
"03/09/08","14:11:15",10176.000,"cc",28246.910,6.00,6,0.100,9238.000,0.200,830.000,0.300,95.000,0.500,13.000,1.000,0,5.000,0
"03/09/08","14:11:21",10200.000,"cc",28377.191,6.00,6,0.100,9332.000,0.200,785.000,0.300,75.000,0.500,8.000,1.000,0,5.000,0
"03/09/08","14:11:27",10329.000,"cc",28318.619,6.00,6,0.100,9437.000,0.200,794.000,0.300,88.000,0.500,10.000,1.000,0,5.000,0
"03/09/08","14:11:33",10188.000,"cc",28265.527,6.00,6,0.100,9228.000,0.200,843.000,0.300,102.000,0.500,14.000,1.000,1.000,5.000,0
"03/09/08","14:11:39",10638.000,"cc",28337.631,6.00,6,0.100,9676.000,0.200,856.000,0.300,100.000,0.500,5.000,1.000,1.000,5.000,0
"03/09/08","14:11:45",10526.000,"cc",28357.738,6.00,6,0.100,9501.000,0.200,896.000,0.300,116.000,0.500,12.000,1.000,1.000,5.000,0
"03/09/08","14:11:51",10197.000,"cc",28257.940,6.00,6,0.100,9281.000,0.200,827.000,0.300,80.000,0.500,9.000,1.000,0,5.000,0
"03/09/08","14:11:57",10890.000,"cc",28304.051,6.00,6,0.100,9845.000,0.200,925.000,0.300,112.000,0.500,8.000,1.000,0,5.000,0
"03/09/08","14:12:03",10511.000,"cc",28284.996,6.00,6,0.100,9579.000,0.200,845.000,0.300,85.000,0.500,2.000,1.000,0,5.000,0
"03/09/08","14:12:09",10544.000,"cc",28304.928,6.00,6,0.100,9585.000,0.200,862.000,0.300,95.000,0.500,2.000,1.000,0,5.000,0
"03/09/08","14:12:15",10650.000,"cc",28369.102,6.00,6,0.100,9602.000,0.200,913.000,0.300,126.000,0.500,8.000,1.000,1.000,5.000,0
"03/09/08","14:12:21",10902.000,"cc",28296.295,6.00,6,0.100,9875.000,0.200,897.000,0.300,122.000,0.500,8.000,1.000,0,5.000,0
"03/09/08","14:12:27",10586.000,"cc",28348.141,6.00,6,0.100,9659.000,0.200,839.000,0.300,83.000,0.500,5.000,1.000,0,5.000,0
"03/09/08","14:12:33",10558.000,"cc",28369.166,6.00,6,0.100,9604.000,0.200,856.000,0.300,88.000,0.500,9.000,1.000,1.000,5.000,0
"03/09/08","14:12:39",10643.000,"cc",28314.535,6.00,6,0.100,9676.000,0.200,849.000,0.300,109.000,0.500,9.000,1.000,0,5.000,0
"03/09/08","14:12:45",10500.000,"cc",28362.832,6.00,6,0.100,9675.000,0.200,743.000,0.300,75.000,0.500,6.000,1.000,1.000,5.000,0
"03/09/08","14:12:51",10609.000,"cc",28305.895,6.00,6,0.100,9690.000,0.200,824.000,0.300,90.000,0.500,5.000,1.000,0,5.000,0
"03/09/08","14:12:57",10624.000,"cc",28194.932,6.00,6,0.100,9662.000,0.200,864.000,0.300,89.000,0.500,8.000,1.000,1.000,5.000,0
"03/09/08","14:13:03",10960.000,"cc",28282.135,6.00,6,0.100,10028.000,0.200,825.000,0.300,99.000,0.500,8.000,1.000,0,5.000,0
"03/09/08","14:13:09",10491.000,"cc",28421.225,6.00,6,0.100,9577.000,0.200,818.000,0.300,90.000,0.500,5.000,1.000,1.000,5.000,0
"03/09/08","14:13:15",10389.000,"cc",28304.857,6.00,6,0.100,9471.000,0.200,844.000,0.300,68.000,0.500,6.000,1.000,0,5.000,0
"03/09/08","14:13:21",10468.000,"cc",28280.053,6.00,6,0.100,9524.000,0.200,851.000,0.300,88.000,0.500,5.000,1.000,0,5.000,0
"03/09/08","14:13:27",10834.000,"cc",28372.723,6.00,6,0.100,9808.000,0.200,935.000,0.300,81.000,0.500,9.000,1.000,1.000,5.000,0
"03/09/08","14:13:33",10669.000,"cc",28264.654,6.00,6,0.100,9823.000,0.200,755.000,0.300,83.000,0.500,8.000,1.000,0,5.000,0
"03/09/08","14:13:39",10955.000,"cc",28418.393,6.00,6,0.100,9899.000,0.200,941.000,0.300,105.000,0.500,10.000,1.000,0,5.000,0
"03/09/08","14:13:45",10692.000,"cc",28396.762,6.00,6,0.100,9807.000,0.200,803.000,0.300,74.000,0.500,8.000,1.000,0,5.000,0
"03/09/08","14:13:51",11137.000,"cc",28238.197,6.00,6,0.100,10109.000,0.200,917.000,0.300,99.000,0.500,12.000,1.000,0,5.000,0
"03/09/08","14:13:57",10949.000,"cc",28341.553,6.00,6,0.100,9951.000,0.200,863.000,0.300,124.000,0.500,11.000,1.000,0,5.000,0
"03/09/08","14:14:03",10904.000,"cc",28309.205,6.00,6,0.100,9908.000,0.200,896.000,0.300,93.000,0.500,7.000,1.000,0,5.000,0
"03/09/08","14:14:09",10520.000,"cc",28280.691,6.00,6,0.100,9687.000,0.200,768.000,0.300,59.000,0.500,6.000,1.000,0,5.000,0
"03/09/08","14:14:15",11043.000,"cc",28370.863,6.00,6,0.100,10121.000,0.200,843.000,0.300,76.000,0.500,2.000,1.000,1.000,5.000,0
"03/09/08","14:14:21",10727.000,"cc",28180.801,6.00,6,0.100,9868.000,0.200,776.000,0.300,78.000,0.500,4.000,1.000,1.000,5.000,0
"03/09/08","14:14:27",11258.000,"cc",28386.371,6.00,6,0.100,10246.000,0.200,903.000,0.300,99.000,0.500,8.000,1.000,2.000,5.000,0
"03/09/08","14:14:33",11119.000,"cc",28407.205,6.00,6,0.100,10108.000,0.200,909.000,0.300,89.000,0.500,13.000,1.000,0,5.000,0
"03/09/08","14:14:39",11163.000,"cc",28314.129,6.00,6,0.100,10183.000,0.200,868.000,0.300,105.000,0.500,7.000,1.000,0,5.000,0
"03/09/08","14:14:45",11384.000,"cc",28202.662,6.00,6,0.100,10292.000,0.200,980.000,0.300,106.000,0.500,6.000,1.000,0,5.000,0
"03/09/08","14:14:51",11106.000,"cc",28357.311,6.00,6,0.100,10188.000,0.200,818.000,0.300,96.000,0.500,4.000,1.000,0,5.000,0
"03/09/08","14:14:57",10866.000,"cc",28314.320,6.00,6,0.100,9914.000,0.200,856.000,0.300,89.000,0.500,7.000,1.000,0,5.000,0
"03/09/08","14:15:03",11048.000,"cc",28262.850,6.00,6,0.100,10075.000,0.200,881.000,0.300,86.000,0.500,6.000,1.000,0,5.000,0
"03/09/08","14:15:09",11093.000,"cc",28351.815,6.00,6,0.100,10084.000,0.200,917.000,0.300,87.000,0.500,5.000,1.000,0,5.000,0
"03/09/08","14:15:15",11372.000,"cc",28284.727,6.00,6,0.100,10349.000,0.200,906.000,0.300,107.000,0.500,9.000,1.000,1.000,5.000,0
"03/09/08","14:15:21",11281.000,"cc",28331.049,6.00,6,0.100,10271.000,0.200,919.000,0.300,82.000,0.500,9.000,1.000,0,5.000,0
"03/09/08","14:15:27",10981.000,"cc",28408.650,6.00,6,0.100,10067.000,0.200,813.000,0.300,92.000,0.500,9.000,1.000,0,5.000,0
"03/09/08","14:15:33",11104.000,"cc",28247.211,6.00,6,0.100,10144.000,0.200,860.000,0.300,95.000,0.500,5.000,1.000,0,5.000,0
"03/09/08","14:15:39",11060.000,"cc",28181.041,6.00,6,0.100,10063.000,0.200,896.000,0.300,90.000,0.500,11.000,1.000,0,5.000,0
"03/09/08","14:15:45",11237.000,"cc",28292.172,6.00,6,0.100,10254.000,0.200,880.000,0.300,97.000,0.500,6.000,1.000,0,5.000,0
"03/09/08","14:15:51",10788.000,"cc",28347.934,6.00,6,0.100,9859.000,0.200,829.000,0.300,86.000,0.500,13.000,1.000,1.000,5.000,0
"03/09/08","14:15:57",10855.000,"cc",28356.234,6.00,6,0.100,9928.000,0.200,846.000,0.300,70.000,0.500,11.000,1.000,0,5.000,0
"03/09/08","14:16:03",11427.000,"cc",28388.027,6.00,6,0.100,10377.000,0.200,939.000,0.300,106.000,0.500,5.000,1.000,0,5.000,0
"03/09/08","14:16:09",11150.000,"cc",28296.777,6.00,6,0.100,10097.000,0.200,941.000,0.300,105.000,0.500,7.000,1.000,0,5.000,0
"03/09/08","14:16:15",11495.000,"cc",28294.057,6.00,6,0.100,10463.000,0.200,912.000,0.300,115.000,0.500,5.000,1.000,0,5.000,0
"03/09/08","14:16:21",11699.000,"cc",28324.275,6.00,6,0.100,10644.000,0.200,908.000,0.300,137.000,0.500,10.000,1.000,0,5.000,0
"03/09/08","14:16:27",11656.000,"cc",28311.742,6.00,6,0.100,10574.000,0.200,951.000,0.300,115.000,0.500,14.000,1.000,2.000,5.000,0
"03/09/08","14:16:33",11202.000,"cc",28330.963,6.00,6,0.100,10249.000,0.200,863.000,0.300,85.000,0.500,5.000,1.000,0,5.000,0
"03/09/08","14:16:39",10957.000,"cc",28321.840,6.00,6,0.100,9989.000,0.200,879.000,0.300,83.000,0.500,6.000,1.000,0,5.000,0
"03/09/08","14:16:45",11320.000,"cc",28397.934,6.00,6,0.100,10295.000,0.200,926.000,0.300,94.000,0.500,5.000,1.000,0,5.000,0
"03/09/08","14:16:51",11354.000,"cc",28393.158,6.00,6,0.100,10320.000,0.200,930.000,0.300,99.000,0.500,5.000,1.000,0,5.000,0
"03/09/08","14:16:57",11242.000,"cc",28207.598,6.00,6,0.100,10244.000,0.200,901.000,0.300,89.000,0.500,8.000,1.000,0,5.000,0
"03/09/08","14:17:03",11898.000,"cc",28256.455,6.00,6,0.100,10821.000,0.200,952.000,0.300,113.000,0.500,12.000,1.000,0,5.000,0
"03/09/08","14:17:09",11455.000,"cc",28226.361,6.00,6,0.100,10418.000,0.200,931.000,0.300,97.000,0.500,9.000,1.000,0,5.000,0
"03/09/08","14:17:15",11514.000,"cc",28268.779,6.00,6,0.100,10415.000,0.200,951.000,0.300,133.000,0.500,15.000,1.000,0,5.000,0
"03/09/08","14:17:21",11703.000,"cc",28330.818,6.00,6,0.100,10660.000,0.200,923.000,0.300,103.000,0.500,17.000,1.000,0,5.000,0
"03/09/08","14:17:27",11217.000,"cc",28480.848,6.00,6,0.100,10177.000,0.200,922.000,0.300,109.000,0.500,8.000,1.000,1.000,5.000,0
"03/09/08","14:17:33",11283.000,"cc",28338.490,6.00,6,0.100,10255.000,0.200,926.000,0.300,95.000,0.500,7.000,1.000,0,5.000,0
"03/09/08","14:17:39",11663.000,"cc",28280.760,6.00,6,0.100,10518.000,0.200,999.000,0.300,132.000,0.500,13.000,1.000,1.000,5.000,0
"03/09/08","14:17:45",11732.000,"cc",28296.451,6.00,6,0.100,10648.000,0.200,952.000,0.300,122.000,0.500,10.000,1.000,0,5.000,0
"03/09/08","14:17:51",11670.000,"cc",28278.867,6.00,6,0.100,10653.000,0.200,892.000,0.300,117.000,0.500,8.000,1.000,0,5.000,0
"03/09/08","14:17:57",11316.000,"cc",28333.867,6.00,6,0.100,10367.000,0.200,843.000,0.300,95.000,0.500,11.000,1.000,0,5.000,0